Year,Month,Day,Hour,Minute,Value (Times are PST for temperature in C)
2015,06,05,00,00,12.00
2015,06,05,00,01,12.00
2015,06,05,00,02,11.90
2015,06,05,00,03,11.90
2015,06,05,00,04,11.90
2015,06,05,00,05,11.80
2015,06,05,00,06,11.80
2015,06,05,00,07,11.80
2015,06,05,00,08,11.80
2015,06,05,00,09,11.80
2015,06,05,00,10,11.80
2015,06,05,00,11,11.80
2015,06,05,00,12,11.80
2015,06,05,00,13,11.80
2015,06,05,00,14,11.80
2015,06,05,00,15,11.80
2015,06,05,00,16,11.80
2015,06,05,00,17,11.80
2015,06,05,00,18,11.80
2015,06,05,00,19,11.80
2015,06,05,00,20,11.80
2015,06,05,00,21,11.80
2015,06,05,00,22,11.80
2015,06,05,00,23,11.80
2015,06,05,00,24,11.70
2015,06,05,00,25,11.70
2015,06,05,00,26,11.70
2015,06,05,00,27,11.60
2015,06,05,00,28,11.60
2015,06,05,00,29,11.60
2015,06,05,00,30,11.60
2015,06,05,00,31,11.60
2015,06,05,00,32,11.60
2015,06,05,00,33,11.60
2015,06,05,00,34,11.60
2015,06,05,00,35,11.70
2015,06,05,00,36,11.70
2015,06,05,00,37,11.70
2015,06,05,00,38,11.70
2015,06,05,00,39,11.70
2015,06,05,00,40,11.70
2015,06,05,00,41,11.80
2015,06,05,00,42,11.80
2015,06,05,00,43,11.80
2015,06,05,00,44,11.80
2015,06,05,00,45,11.80
2015,06,05,00,46,11.80
2015,06,05,00,47,11.80
2015,06,05,00,48,11.80
2015,06,05,00,49,11.90
2015,06,05,00,50,11.90
2015,06,05,00,51,11.90
2015,06,05,00,52,11.90
2015,06,05,00,53,11.90
2015,06,05,00,54,11.90
2015,06,05,00,55,11.90
2015,06,05,00,56,11.90
2015,06,05,00,57,11.90
2015,06,05,00,58,11.90
2015,06,05,00,59,11.90
2015,06,05,01,00,12.00
2015,06,05,01,01,12.00
2015,06,05,01,02,12.00
2015,06,05,01,03,12.00
2015,06,05,01,04,12.10
2015,06,05,01,05,12.10
2015,06,05,01,06,12.10
2015,06,05,01,07,12.20
2015,06,05,01,08,12.20
2015,06,05,01,09,12.20
2015,06,05,01,10,12.30
2015,06,05,01,11,12.30
2015,06,05,01,12,12.30
2015,06,05,01,13,12.30
2015,06,05,01,14,12.40
2015,06,05,01,15,12.50
2015,06,05,01,16,12.50
2015,06,05,01,17,12.50
2015,06,05,01,18,12.60
2015,06,05,01,19,12.60
2015,06,05,01,20,12.70
2015,06,05,01,21,12.80
2015,06,05,01,22,12.90
2015,06,05,01,23,13.00
2015,06,05,01,24,13.00
2015,06,05,01,25,13.10
2015,06,05,01,26,13.20
2015,06,05,01,27,13.30
2015,06,05,01,28,13.40
2015,06,05,01,29,13.50
2015,06,05,01,30,13.60
2015,06,05,01,31,13.60
2015,06,05,01,32,13.70
2015,06,05,01,33,13.70
2015,06,05,01,34,13.80
2015,06,05,01,35,13.80
2015,06,05,01,36,13.90
2015,06,05,01,37,14.00
2015,06,05,01,38,14.00
2015,06,05,01,39,14.10
2015,06,05,01,40,14.20
2015,06,05,01,41,14.20
2015,06,05,01,42,14.30
2015,06,05,01,43,14.30
2015,06,05,01,44,14.40
2015,06,05,01,45,14.40
2015,06,05,01,46,14.50
2015,06,05,01,47,14.50
2015,06,05,01,48,14.50
2015,06,05,01,49,14.50
2015,06,05,01,50,14.50
2015,06,05,01,51,14.50
2015,06,05,01,52,14.50
2015,06,05,01,53,14.50
2015,06,05,01,54,14.50
2015,06,05,01,55,14.50
2015,06,05,01,56,14.40
2015,06,05,01,57,14.40
2015,06,05,01,58,14.40
2015,06,05,01,59,14.40
2015,06,05,02,00,14.40
2015,06,05,02,01,14.40
2015,06,05,02,02,14.40
2015,06,05,02,03,14.40
2015,06,05,02,04,14.50
2015,06,05,02,05,14.50
2015,06,05,02,06,14.50
2015,06,05,02,07,14.50
2015,06,05,02,08,14.50
2015,06,05,02,09,14.40
2015,06,05,02,10,14.40
2015,06,05,02,11,14.40
2015,06,05,02,12,14.40
2015,06,05,02,13,14.40
2015,06,05,02,14,14.30
2015,06,05,02,15,14.30
2015,06,05,02,16,14.30
2015,06,05,02,17,14.30
2015,06,05,02,18,14.20
2015,06,05,02,19,14.20
2015,06,05,02,20,14.20
2015,06,05,02,21,14.10
2015,06,05,02,22,14.00
2015,06,05,02,23,14.00
2015,06,05,02,24,13.90
2015,06,05,02,25,13.80
2015,06,05,02,26,13.70
2015,06,05,02,27,13.70
2015,06,05,02,28,13.60
2015,06,05,02,29,13.50
2015,06,05,02,30,13.50
2015,06,05,02,31,13.40
2015,06,05,02,32,13.30
2015,06,05,02,33,13.30
2015,06,05,02,34,13.20
2015,06,05,02,35,13.20
2015,06,05,02,36,13.10
2015,06,05,02,37,13.10
2015,06,05,02,38,13.00
2015,06,05,02,39,13.00
2015,06,05,02,40,12.90
2015,06,05,02,41,12.90
2015,06,05,02,42,12.80
2015,06,05,02,43,12.80
2015,06,05,02,44,12.80
2015,06,05,02,45,12.80
2015,06,05,02,46,12.80
2015,06,05,02,47,12.80
2015,06,05,02,48,12.90
2015,06,05,02,49,13.00
2015,06,05,02,50,13.10
2015,06,05,02,51,13.20
2015,06,05,02,52,13.30
2015,06,05,02,53,13.30
2015,06,05,02,54,13.40
2015,06,05,02,55,13.50
2015,06,05,02,56,13.60
2015,06,05,02,57,13.70
2015,06,05,02,58,13.80
2015,06,05,02,59,13.90
2015,06,05,03,00,13.90
2015,06,05,03,01,14.00
2015,06,05,03,02,14.10
2015,06,05,03,03,14.20
2015,06,05,03,04,14.20
2015,06,05,03,05,14.20
2015,06,05,03,06,14.20
2015,06,05,03,07,14.20
2015,06,05,03,08,14.30
2015,06,05,03,09,14.30
2015,06,05,03,10,14.20
2015,06,05,03,11,14.10
2015,06,05,03,12,14.00
2015,06,05,03,13,13.90
2015,06,05,03,14,13.90
2015,06,05,03,15,13.80
2015,06,05,03,16,13.70
2015,06,05,03,17,13.70
2015,06,05,03,18,13.60
2015,06,05,03,19,13.50
2015,06,05,03,20,13.40
2015,06,05,03,21,13.40
2015,06,05,03,22,13.30
2015,06,05,03,23,13.30
2015,06,05,03,24,13.30
2015,06,05,03,25,13.40
2015,06,05,03,26,13.50
2015,06,05,03,27,13.50
2015,06,05,03,28,13.60
2015,06,05,03,29,13.60
2015,06,05,03,30,13.70
2015,06,05,03,31,13.70
2015,06,05,03,32,13.70
2015,06,05,03,33,13.80
2015,06,05,03,34,13.80
2015,06,05,03,35,13.90
2015,06,05,03,36,13.90
2015,06,05,03,37,14.00
2015,06,05,03,38,14.00
2015,06,05,03,39,14.10
2015,06,05,03,40,14.20
2015,06,05,03,41,14.20
2015,06,05,03,42,14.20
2015,06,05,03,43,14.20
2015,06,05,03,44,14.20
2015,06,05,03,45,14.30
2015,06,05,03,46,14.30
2015,06,05,03,47,14.30
2015,06,05,03,48,14.30
2015,06,05,03,49,14.20
2015,06,05,03,50,14.20
2015,06,05,03,51,14.20
2015,06,05,03,52,14.20
2015,06,05,03,53,14.20
2015,06,05,03,54,14.20
2015,06,05,03,55,14.20
2015,06,05,03,56,14.20
2015,06,05,03,57,14.10
2015,06,05,03,58,14.10
2015,06,05,03,59,14.10
2015,06,05,04,00,14.00
2015,06,05,04,01,14.00
2015,06,05,04,02,14.00
2015,06,05,04,03,14.00
2015,06,05,04,04,14.00
2015,06,05,04,05,13.90
2015,06,05,04,06,13.90
2015,06,05,04,07,13.90
2015,06,05,04,08,13.80
2015,06,05,04,09,13.80
2015,06,05,04,10,13.80
2015,06,05,04,11,13.70
2015,06,05,04,12,13.70
2015,06,05,04,13,13.70
2015,06,05,04,14,13.70
2015,06,05,04,15,13.60
2015,06,05,04,16,13.60
2015,06,05,04,17,13.60
2015,06,05,04,18,13.50
2015,06,05,04,19,13.50
2015,06,05,04,20,13.40
2015,06,05,04,21,13.40
2015,06,05,04,22,13.30
2015,06,05,04,23,13.30
2015,06,05,04,24,13.30
2015,06,05,04,25,13.20
2015,06,05,04,26,13.20
2015,06,05,04,27,13.20
2015,06,05,04,28,13.10
2015,06,05,04,29,13.10
2015,06,05,04,30,13.10
2015,06,05,04,31,13.00
2015,06,05,04,32,13.00
2015,06,05,04,33,12.90
2015,06,05,04,34,12.90
2015,06,05,04,35,12.90
2015,06,05,04,36,12.80
2015,06,05,04,37,12.80
2015,06,05,04,38,12.80
2015,06,05,04,39,12.70
2015,06,05,04,40,12.70
2015,06,05,04,41,12.60
2015,06,05,04,42,12.60
2015,06,05,04,43,12.50
2015,06,05,04,44,12.50
2015,06,05,04,45,12.50
2015,06,05,04,46,12.40
2015,06,05,04,47,12.40
2015,06,05,04,48,12.30
2015,06,05,04,49,12.30
2015,06,05,04,50,12.30
2015,06,05,04,51,12.30
2015,06,05,04,52,12.30
2015,06,05,04,53,12.20
2015,06,05,04,54,12.20
2015,06,05,04,55,12.20
2015,06,05,04,56,12.20
2015,06,05,04,57,12.20
2015,06,05,04,58,12.20
2015,06,05,04,59,12.20
2015,06,05,05,00,12.20
2015,06,05,05,01,12.20
2015,06,05,05,02,12.10
2015,06,05,05,03,12.10
2015,06,05,05,04,12.10
2015,06,05,05,05,12.10
2015,06,05,05,06,12.00
2015,06,05,05,07,12.00
2015,06,05,05,08,12.00
2015,06,05,05,09,12.00
2015,06,05,05,10,11.90
2015,06,05,05,11,11.90
2015,06,05,05,12,11.80
2015,06,05,05,13,11.80
2015,06,05,05,14,11.80
2015,06,05,05,15,11.80
2015,06,05,05,16,11.80
2015,06,05,05,17,11.80
2015,06,05,05,18,11.70
2015,06,05,05,19,11.70
2015,06,05,05,20,11.70
2015,06,05,05,21,11.70
2015,06,05,05,22,11.60
2015,06,05,05,23,11.60
2015,06,05,05,24,11.60
2015,06,05,05,25,11.60
2015,06,05,05,26,11.60
2015,06,05,05,27,11.60
2015,06,05,05,28,11.60
2015,06,05,05,29,11.60
2015,06,05,05,30,11.60
2015,06,05,05,31,11.50
2015,06,05,05,32,11.40
2015,06,05,05,33,11.40
2015,06,05,05,34,11.40
2015,06,05,05,35,11.40
2015,06,05,05,36,11.40
2015,06,05,05,37,11.40
2015,06,05,05,38,11.40
2015,06,05,05,39,11.40
2015,06,05,05,40,11.30
2015,06,05,05,41,11.30
2015,06,05,05,42,11.30
2015,06,05,05,43,11.30
2015,06,05,05,44,11.30
2015,06,05,05,45,11.30
2015,06,05,05,46,11.30
2015,06,05,05,47,11.30
2015,06,05,05,48,11.30
2015,06,05,05,49,11.30
2015,06,05,05,50,11.40
2015,06,05,05,51,11.40
2015,06,05,05,52,11.30
2015,06,05,05,53,11.30
2015,06,05,05,54,11.30
2015,06,05,05,55,11.30
2015,06,05,05,56,11.30
2015,06,05,05,57,11.30
2015,06,05,05,58,11.30
2015,06,05,05,59,11.30
2015,06,05,06,00,11.30
2015,06,05,06,01,11.30
2015,06,05,06,02,11.30
2015,06,05,06,03,11.40
2015,06,05,06,04,11.40
2015,06,05,06,05,11.40
2015,06,05,06,06,11.40
2015,06,05,06,07,11.40
2015,06,05,06,08,11.40
2015,06,05,06,09,11.40
2015,06,05,06,10,11.50
2015,06,05,06,11,11.60
2015,06,05,06,12,11.60
2015,06,05,06,13,11.60
2015,06,05,06,14,11.60
2015,06,05,06,15,11.70
2015,06,05,06,16,11.80
2015,06,05,06,17,11.80
2015,06,05,06,18,11.80
2015,06,05,06,19,11.80
2015,06,05,06,20,11.90
2015,06,05,06,21,12.00
2015,06,05,06,22,12.00
2015,06,05,06,23,12.10
2015,06,05,06,24,12.10
2015,06,05,06,25,12.20
2015,06,05,06,26,12.20
2015,06,05,06,27,12.30
2015,06,05,06,28,12.30
2015,06,05,06,29,12.40
2015,06,05,06,30,12.50
2015,06,05,06,31,12.60
2015,06,05,06,32,12.60
2015,06,05,06,33,12.70
2015,06,05,06,34,12.80
2015,06,05,06,35,12.80
2015,06,05,06,36,12.80
2015,06,05,06,37,12.90
2015,06,05,06,38,13.00
2015,06,05,06,39,13.00
2015,06,05,06,40,13.10
2015,06,05,06,41,13.20
2015,06,05,06,42,13.20
2015,06,05,06,43,13.30
2015,06,05,06,44,13.30
2015,06,05,06,45,13.40
2015,06,05,06,46,13.50
2015,06,05,06,47,13.50
2015,06,05,06,48,13.60
2015,06,05,06,49,13.70
2015,06,05,06,50,13.70
2015,06,05,06,51,13.80
2015,06,05,06,52,13.80
2015,06,05,06,53,13.80
2015,06,05,06,54,13.90
2015,06,05,06,55,13.90
2015,06,05,06,56,14.00
2015,06,05,06,57,14.10
2015,06,05,06,58,14.20
2015,06,05,06,59,14.20
2015,06,05,07,00,14.20
2015,06,05,07,01,14.30
2015,06,05,07,02,14.40
2015,06,05,07,03,14.50
2015,06,05,07,04,14.50
2015,06,05,07,05,14.60
2015,06,05,07,06,14.60
2015,06,05,07,07,14.60
2015,06,05,07,08,14.60
2015,06,05,07,09,14.70
2015,06,05,07,10,14.70
2015,06,05,07,11,14.80
2015,06,05,07,12,14.80
2015,06,05,07,13,14.80
2015,06,05,07,14,14.80
2015,06,05,07,15,14.80
2015,06,05,07,16,14.90
2015,06,05,07,17,14.90
2015,06,05,07,18,14.90
2015,06,05,07,19,14.90
2015,06,05,07,20,15.00
2015,06,05,07,21,15.00
2015,06,05,07,22,15.00
2015,06,05,07,23,15.00
2015,06,05,07,24,15.10
2015,06,05,07,25,15.10
2015,06,05,07,26,15.20
2015,06,05,07,27,15.20
2015,06,05,07,28,15.30
2015,06,05,07,29,15.30
2015,06,05,07,30,15.30
2015,06,05,07,31,15.30
2015,06,05,07,32,15.40
2015,06,05,07,33,15.50
2015,06,05,07,34,15.50
2015,06,05,07,35,15.60
2015,06,05,07,36,15.60
2015,06,05,07,37,15.70
2015,06,05,07,38,15.70
2015,06,05,07,39,15.80
2015,06,05,07,40,15.80
2015,06,05,07,41,15.80
2015,06,05,07,42,15.90
2015,06,05,07,43,15.90
2015,06,05,07,44,15.90
2015,06,05,07,45,16.10
2015,06,05,07,46,16.10
2015,06,05,07,47,16.10
2015,06,05,07,48,16.10
2015,06,05,07,49,16.10
2015,06,05,07,50,16.20
2015,06,05,07,51,16.20
2015,06,05,07,52,16.20
2015,06,05,07,53,16.30
2015,06,05,07,54,16.30
2015,06,05,07,55,16.40
2015,06,05,07,56,16.40
2015,06,05,07,57,16.40
2015,06,05,07,58,16.50
2015,06,05,07,59,16.60
2015,06,05,08,00,16.60
2015,06,05,08,01,16.70
2015,06,05,08,02,16.70
2015,06,05,08,03,16.70
2015,06,05,08,04,16.70
2015,06,05,08,05,16.80
2015,06,05,08,06,16.80
2015,06,05,08,07,16.90
2015,06,05,08,08,16.90
2015,06,05,08,09,17.00
2015,06,05,08,10,17.00
2015,06,05,08,11,17.10
2015,06,05,08,12,17.10
2015,06,05,08,13,17.20
2015,06,05,08,14,17.20
2015,06,05,08,15,17.30
2015,06,05,08,16,17.30
2015,06,05,08,17,17.40
2015,06,05,08,18,17.50
2015,06,05,08,19,17.50
2015,06,05,08,20,17.60
2015,06,05,08,21,17.60
2015,06,05,08,22,17.70
2015,06,05,08,23,17.80
2015,06,05,08,24,17.80
2015,06,05,08,25,17.80
2015,06,05,08,26,17.90
2015,06,05,08,27,17.90
2015,06,05,08,28,18.10
2015,06,05,08,29,18.20
2015,06,05,08,30,18.30
2015,06,05,08,31,18.50
2015,06,05,08,32,18.60
2015,06,05,08,33,18.60
2015,06,05,08,34,18.70
2015,06,05,08,35,18.80
2015,06,05,08,36,18.90
2015,06,05,08,37,18.90
2015,06,05,08,38,18.90
2015,06,05,08,39,18.90
2015,06,05,08,40,18.80
2015,06,05,08,41,18.80
2015,06,05,08,42,18.70
2015,06,05,08,43,18.60
2015,06,05,08,44,18.60
2015,06,05,08,45,18.60
2015,06,05,08,46,18.60
2015,06,05,08,47,18.50
2015,06,05,08,48,18.50
2015,06,05,08,49,18.50
2015,06,05,08,50,18.50
2015,06,05,08,51,18.50
2015,06,05,08,52,18.50
2015,06,05,08,53,18.60
2015,06,05,08,54,18.70
2015,06,05,08,55,18.80
2015,06,05,08,56,18.80
2015,06,05,08,57,18.90
2015,06,05,08,58,18.90
2015,06,05,08,59,18.90
2015,06,05,09,00,18.90
2015,06,05,09,01,18.90
2015,06,05,09,02,19.00
2015,06,05,09,03,19.10
2015,06,05,09,04,19.10
2015,06,05,09,05,19.30
2015,06,05,09,06,19.40
2015,06,05,09,07,19.50
2015,06,05,09,08,19.60
2015,06,05,09,09,19.60
2015,06,05,09,10,19.60
2015,06,05,09,11,19.50
2015,06,05,09,12,19.50
2015,06,05,09,13,19.50
2015,06,05,09,14,19.40
2015,06,05,09,15,19.40
2015,06,05,09,16,19.30
2015,06,05,09,17,19.10
2015,06,05,09,18,19.10
2015,06,05,09,19,19.00
2015,06,05,09,20,18.90
2015,06,05,09,21,18.90
2015,06,05,09,22,18.90
2015,06,05,09,23,18.90
2015,06,05,09,24,18.90
2015,06,05,09,25,18.90
2015,06,05,09,26,18.90
2015,06,05,09,27,19.00
2015,06,05,09,28,19.10
2015,06,05,09,29,19.10
2015,06,05,09,30,19.10
2015,06,05,09,31,19.20
2015,06,05,09,32,19.30
2015,06,05,09,33,19.30
2015,06,05,09,34,19.40
2015,06,05,09,35,19.50
2015,06,05,09,36,19.40
2015,06,05,09,37,19.30
2015,06,05,09,38,19.20
2015,06,05,09,39,19.10
2015,06,05,09,40,19.10
2015,06,05,09,41,19.20
2015,06,05,09,42,19.20
2015,06,05,09,43,19.20
2015,06,05,09,44,19.10
2015,06,05,09,45,18.90
2015,06,05,09,46,18.90
2015,06,05,09,47,18.80
2015,06,05,09,48,18.80
2015,06,05,09,49,18.80
2015,06,05,09,50,18.80
2015,06,05,09,51,18.80
2015,06,05,09,52,18.90
2015,06,05,09,53,18.90
2015,06,05,09,54,19.00
2015,06,05,09,55,19.10
2015,06,05,09,56,19.10
2015,06,05,09,57,19.10
2015,06,05,09,58,19.10
2015,06,05,09,59,19.20
2015,06,05,10,00,19.20
2015,06,05,10,01,19.20
2015,06,05,10,02,19.30
2015,06,05,10,03,19.30
2015,06,05,10,04,19.30
2015,06,05,10,05,19.20
2015,06,05,10,06,19.10
2015,06,05,10,07,19.10
2015,06,05,10,08,19.10
2015,06,05,10,09,19.00
2015,06,05,10,10,18.90
2015,06,05,10,11,18.90
2015,06,05,10,12,18.80
2015,06,05,10,13,18.70
2015,06,05,10,14,18.60
2015,06,05,10,15,18.60
2015,06,05,10,16,18.60
2015,06,05,10,17,18.70
2015,06,05,10,18,18.70
2015,06,05,10,19,18.70
2015,06,05,10,20,18.60
2015,06,05,10,21,18.50
2015,06,05,10,22,18.40
2015,06,05,10,23,18.40
2015,06,05,10,24,18.30
2015,06,05,10,25,18.30
2015,06,05,10,26,18.40
2015,06,05,10,27,18.40
2015,06,05,10,28,18.40
2015,06,05,10,29,18.50
2015,06,05,10,30,18.50
2015,06,05,10,31,18.60
2015,06,05,10,32,18.70
2015,06,05,10,33,18.70
2015,06,05,10,34,18.70
2015,06,05,10,35,18.70
2015,06,05,10,36,18.80
2015,06,05,10,37,18.80
2015,06,05,10,38,18.80
2015,06,05,10,39,18.80
2015,06,05,10,40,18.90
2015,06,05,10,41,18.90
2015,06,05,10,42,18.90
2015,06,05,10,43,18.90
2015,06,05,10,44,18.90
2015,06,05,10,45,18.90
2015,06,05,10,46,18.90
2015,06,05,10,47,18.90
2015,06,05,10,48,18.80
2015,06,05,10,49,18.70
2015,06,05,10,50,18.70
2015,06,05,10,51,18.70
2015,06,05,10,52,18.70
2015,06,05,10,53,18.70
2015,06,05,10,54,18.70
2015,06,05,10,55,18.80
2015,06,05,10,56,18.80
2015,06,05,10,57,18.90
2015,06,05,10,58,19.00
2015,06,05,10,59,19.10
2015,06,05,11,00,19.10
2015,06,05,11,01,19.10
2015,06,05,11,02,19.10
2015,06,05,11,03,19.10
2015,06,05,11,04,19.10
2015,06,05,11,05,19.10
2015,06,05,11,06,19.10
2015,06,05,11,07,19.20
2015,06,05,11,08,19.20
2015,06,05,11,09,19.20
2015,06,05,11,10,19.10
2015,06,05,11,11,19.10
2015,06,05,11,12,19.10
2015,06,05,11,13,19.10
2015,06,05,11,14,19.20
2015,06,05,11,15,19.20
2015,06,05,11,16,19.20
2015,06,05,11,17,19.20
2015,06,05,11,18,19.20
2015,06,05,11,19,19.20
2015,06,05,11,20,19.20
2015,06,05,11,21,19.20
2015,06,05,11,22,19.20
2015,06,05,11,23,19.20
2015,06,05,11,24,19.20
2015,06,05,11,25,19.10
2015,06,05,11,26,19.10
2015,06,05,11,27,19.10
2015,06,05,11,28,19.10
2015,06,05,11,29,18.90
2015,06,05,11,30,18.90
2015,06,05,11,31,19.00
2015,06,05,11,32,19.10
2015,06,05,11,33,19.10
2015,06,05,11,34,19.10
2015,06,05,11,35,19.20
2015,06,05,11,36,19.30
2015,06,05,11,37,19.30
2015,06,05,11,38,19.40
2015,06,05,11,39,19.50
2015,06,05,11,40,19.60
2015,06,05,11,41,19.60
2015,06,05,11,42,19.60
2015,06,05,11,43,19.70
2015,06,05,11,44,19.80
2015,06,05,11,45,19.80
2015,06,05,11,46,19.80
2015,06,05,11,47,19.80
2015,06,05,11,48,19.80
2015,06,05,11,49,19.80
2015,06,05,11,50,19.80
2015,06,05,11,51,19.70
2015,06,05,11,52,19.60
2015,06,05,11,53,19.60
2015,06,05,11,54,19.70
2015,06,05,11,55,19.80
2015,06,05,11,56,19.80
2015,06,05,11,57,19.90
2015,06,05,11,58,19.90
2015,06,05,11,59,20.00
2015,06,05,12,00,20.10
2015,06,05,12,01,20.20
2015,06,05,12,02,20.20
2015,06,05,12,03,20.20
2015,06,05,12,04,20.20
2015,06,05,12,05,20.20
2015,06,05,12,06,20.20
2015,06,05,12,07,20.30
2015,06,05,12,08,20.30
2015,06,05,12,09,20.40
2015,06,05,12,10,20.40
2015,06,05,12,11,20.40
2015,06,05,12,12,20.40
2015,06,05,12,13,20.40
2015,06,05,12,14,20.30
2015,06,05,12,15,20.30
2015,06,05,12,16,20.20
2015,06,05,12,17,20.20
2015,06,05,12,18,20.20
2015,06,05,12,19,20.20
2015,06,05,12,20,20.20
2015,06,05,12,21,20.30
2015,06,05,12,22,20.30
2015,06,05,12,23,20.40
2015,06,05,12,24,20.50
2015,06,05,12,25,20.60
2015,06,05,12,26,20.70
2015,06,05,12,27,20.90
2015,06,05,12,28,21.00
2015,06,05,12,29,21.10
2015,06,05,12,30,21.10
2015,06,05,12,31,21.10
2015,06,05,12,32,21.10
2015,06,05,12,33,21.20
2015,06,05,12,34,21.20
2015,06,05,12,35,21.20
2015,06,05,12,36,21.20
2015,06,05,12,37,21.30
2015,06,05,12,38,21.40
2015,06,05,12,39,21.40
2015,06,05,12,40,21.40
2015,06,05,12,41,21.30
2015,06,05,12,42,21.30
2015,06,05,12,43,21.30
2015,06,05,12,44,21.30
2015,06,05,12,45,21.30
2015,06,05,12,46,21.30
2015,06,05,12,47,21.30
2015,06,05,12,48,21.30
2015,06,05,12,49,21.30
2015,06,05,12,50,21.30
2015,06,05,12,51,21.30
2015,06,05,12,52,21.30
2015,06,05,12,53,21.40
2015,06,05,12,54,21.30
2015,06,05,12,55,21.30
2015,06,05,12,56,21.30
2015,06,05,12,57,21.30
2015,06,05,12,58,21.10
2015,06,05,12,59,21.10
2015,06,05,13,00,21.10
2015,06,05,13,01,21.10
2015,06,05,13,02,21.20
2015,06,05,13,03,21.20
2015,06,05,13,04,21.30
2015,06,05,13,05,21.30
2015,06,05,13,06,21.30
2015,06,05,13,07,21.30
2015,06,05,13,08,21.40
2015,06,05,13,09,21.40
2015,06,05,13,10,21.60
2015,06,05,13,11,21.60
2015,06,05,13,12,21.60
2015,06,05,13,13,21.60
2015,06,05,13,14,21.70
2015,06,05,13,15,21.70
2015,06,05,13,16,21.70
2015,06,05,13,17,21.80
2015,06,05,13,18,21.90
2015,06,05,13,19,21.90
2015,06,05,13,20,21.90
2015,06,05,13,21,21.90
2015,06,05,13,22,21.80
2015,06,05,13,23,21.90
2015,06,05,13,24,22.00
2015,06,05,13,25,22.00
2015,06,05,13,26,22.10
2015,06,05,13,27,22.20
2015,06,05,13,28,22.30
2015,06,05,13,29,22.30
2015,06,05,13,30,22.30
2015,06,05,13,31,22.20
2015,06,05,13,32,22.10
2015,06,05,13,33,22.00
2015,06,05,13,34,21.80
2015,06,05,13,35,21.70
2015,06,05,13,36,21.60
2015,06,05,13,37,21.60
2015,06,05,13,38,21.70
2015,06,05,13,39,21.70
2015,06,05,13,40,21.80
2015,06,05,13,41,21.90
2015,06,05,13,42,22.00
2015,06,05,13,43,22.00
2015,06,05,13,44,22.10
2015,06,05,13,45,22.20
2015,06,05,13,46,22.20
2015,06,05,13,47,22.20
2015,06,05,13,48,22.20
2015,06,05,13,49,22.20
2015,06,05,13,50,22.20
2015,06,05,13,51,22.30
2015,06,05,13,52,22.30
2015,06,05,13,53,22.30
2015,06,05,13,54,22.30
2015,06,05,13,55,22.30
2015,06,05,13,56,22.30
2015,06,05,13,57,22.30
2015,06,05,13,58,22.20
2015,06,05,13,59,22.20
2015,06,05,14,00,22.20
2015,06,05,14,01,22.30
2015,06,05,14,02,22.40
2015,06,05,14,03,22.40
2015,06,05,14,04,22.50
2015,06,05,14,05,22.60
2015,06,05,14,06,22.70
2015,06,05,14,07,22.70
2015,06,05,14,08,22.80
2015,06,05,14,09,22.80
2015,06,05,14,10,22.70
2015,06,05,14,11,22.70
2015,06,05,14,12,22.60
2015,06,05,14,13,22.60
2015,06,05,14,14,22.60
2015,06,05,14,15,22.60
2015,06,05,14,16,22.60
2015,06,05,14,17,22.60
2015,06,05,14,18,22.60
2015,06,05,14,19,22.60
2015,06,05,14,20,22.60
2015,06,05,14,21,22.70
2015,06,05,14,22,22.70
2015,06,05,14,23,22.70
2015,06,05,14,24,22.70
2015,06,05,14,25,22.70
2015,06,05,14,26,22.80
2015,06,05,14,27,22.80
2015,06,05,14,28,22.80
2015,06,05,14,29,22.80
2015,06,05,14,30,22.90
2015,06,05,14,31,23.00
2015,06,05,14,32,23.10
2015,06,05,14,33,23.30
2015,06,05,14,34,23.40
2015,06,05,14,35,23.50
2015,06,05,14,36,23.60
2015,06,05,14,37,23.50
2015,06,05,14,38,23.40
2015,06,05,14,39,23.50
2015,06,05,14,40,23.60
2015,06,05,14,41,23.50
2015,06,05,14,42,23.40
2015,06,05,14,43,23.40
2015,06,05,14,44,23.40
2015,06,05,14,45,23.40
2015,06,05,14,46,23.40
2015,06,05,14,47,23.40
2015,06,05,14,48,23.30
2015,06,05,14,49,23.30
2015,06,05,14,50,23.30
2015,06,05,14,51,23.20
2015,06,05,14,52,23.10
2015,06,05,14,53,23.10
2015,06,05,14,54,23.10
2015,06,05,14,55,23.10
2015,06,05,14,56,23.10
2015,06,05,14,57,23.10
2015,06,05,14,58,23.00
2015,06,05,14,59,23.00
2015,06,05,15,00,23.10
2015,06,05,15,01,23.20
2015,06,05,15,02,23.20
2015,06,05,15,03,23.20
2015,06,05,15,04,23.20
2015,06,05,15,05,23.30
2015,06,05,15,06,23.30
2015,06,05,15,07,23.30
2015,06,05,15,08,23.30
2015,06,05,15,09,23.30
2015,06,05,15,10,23.40
2015,06,05,15,11,23.60
2015,06,05,15,12,23.60
2015,06,05,15,13,23.60
2015,06,05,15,14,23.60
2015,06,05,15,15,23.60
2015,06,05,15,16,23.60
2015,06,05,15,17,23.70
2015,06,05,15,18,23.70
2015,06,05,15,19,23.70
2015,06,05,15,20,23.70
2015,06,05,15,21,23.70
2015,06,05,15,22,23.70
2015,06,05,15,23,23.70
2015,06,05,15,24,23.70
2015,06,05,15,25,23.60
2015,06,05,15,26,23.60
2015,06,05,15,27,23.60
2015,06,05,15,28,23.60
2015,06,05,15,29,23.60
2015,06,05,15,30,23.70
2015,06,05,15,31,23.70
2015,06,05,15,32,23.70
2015,06,05,15,33,23.70
2015,06,05,15,34,23.60
2015,06,05,15,35,23.60
2015,06,05,15,36,23.60
2015,06,05,15,37,23.60
2015,06,05,15,38,23.60
2015,06,05,15,39,23.60
2015,06,05,15,40,23.60
2015,06,05,15,41,23.50
2015,06,05,15,42,23.50
2015,06,05,15,43,23.60
2015,06,05,15,44,23.60
2015,06,05,15,45,23.70
2015,06,05,15,46,23.70
2015,06,05,15,47,23.80
2015,06,05,15,48,23.90
2015,06,05,15,49,24.00
2015,06,05,15,50,24.10
2015,06,05,15,51,24.20
2015,06,05,15,52,24.30
2015,06,05,15,53,24.40
2015,06,05,15,54,24.40
2015,06,05,15,55,24.40
2015,06,05,15,56,24.40
2015,06,05,15,57,24.40
2015,06,05,15,58,24.50
2015,06,05,15,59,24.60
2015,06,05,16,00,24.70
2015,06,05,16,01,24.90
2015,06,05,16,02,24.90
2015,06,05,16,03,25.10
2015,06,05,16,04,25.10
2015,06,05,16,05,25.10
2015,06,05,16,06,25.10
2015,06,05,16,07,24.90
2015,06,05,16,08,24.90
2015,06,05,16,09,24.80
2015,06,05,16,10,24.70
2015,06,05,16,11,24.60
2015,06,05,16,12,24.60
2015,06,05,16,13,24.60
2015,06,05,16,14,24.60
2015,06,05,16,15,24.50
2015,06,05,16,16,24.50
2015,06,05,16,17,24.40
2015,06,05,16,18,24.30
2015,06,05,16,19,24.30
2015,06,05,16,20,24.30
2015,06,05,16,21,24.20
2015,06,05,16,22,24.10
2015,06,05,16,23,24.10
2015,06,05,16,24,24.00
2015,06,05,16,25,23.90
2015,06,05,16,26,24.00
2015,06,05,16,27,24.10
2015,06,05,16,28,24.10
2015,06,05,16,29,24.10
2015,06,05,16,30,24.20
2015,06,05,16,31,24.20
2015,06,05,16,32,24.30
2015,06,05,16,33,24.20
2015,06,05,16,34,24.20
2015,06,05,16,35,24.10
2015,06,05,16,36,24.10
2015,06,05,16,37,24.10
2015,06,05,16,38,24.00
2015,06,05,16,39,23.90
2015,06,05,16,40,23.80
2015,06,05,16,41,23.70
2015,06,05,16,42,23.60
2015,06,05,16,43,23.50
2015,06,05,16,44,23.40
2015,06,05,16,45,23.20
2015,06,05,16,46,23.10
2015,06,05,16,47,23.00
2015,06,05,16,48,22.90
2015,06,05,16,49,22.90
2015,06,05,16,50,22.80
2015,06,05,16,51,22.80
2015,06,05,16,52,22.70
2015,06,05,16,53,22.60
2015,06,05,16,54,22.60
2015,06,05,16,55,22.40
2015,06,05,16,56,22.40
2015,06,05,16,57,22.30
2015,06,05,16,58,22.20
2015,06,05,16,59,22.10
2015,06,05,17,00,22.00
2015,06,05,17,01,22.00
2015,06,05,17,02,22.00
2015,06,05,17,03,22.00
2015,06,05,17,04,22.00
2015,06,05,17,05,22.00
2015,06,05,17,06,22.10
2015,06,05,17,07,22.10
2015,06,05,17,08,22.10
2015,06,05,17,09,22.10
2015,06,05,17,10,22.10
2015,06,05,17,11,22.10
2015,06,05,17,12,22.10
2015,06,05,17,13,22.10
2015,06,05,17,14,22.10
2015,06,05,17,15,22.10
2015,06,05,17,16,22.00
2015,06,05,17,17,22.00
2015,06,05,17,18,22.00
2015,06,05,17,19,21.90